[[{"header":{"parameterUnit":"m.s-1","parameterCategory":1,"la1":30.2991,"la2":30.254,"lo1":-89.0895,"lo2":-89.0444,"dy":0.0017,"dx":0.0017,"nx":28,"ny":28,"refTime":"2024-06-02T03:00:00:Z","depth":0,"parameterNumber":2,"parameterNumberName":"U-component_of_WINDS"},"data":[0,0,0,0,0,0,0,0,0,0,0,0,0,0,0,0,0,0,0,0,0,0,0,0,0,0,0,0,0,0,0,0,0,0,0,0,0,0,0,0,0,0,0,0,0,0,0,0,0,0,0,0,0,0,0,0,0,0,-1.8105,-1.8104,0,-1.8026,-1.8025,-1.8024,-1.7951,-1.795,-1.795,-1.7949,-1.7866,-1.7864,-1.7863,0,0,0,0,0,0,0,0,0,0,0,0,0,-1.8193,-1.8191,-1.8105,-1.8104,-1.8103,-1.8026,-1.8025,-1.8024,-1.7952,-1.795,-1.7949,-1.7948,-1.7866,-1.7864,-1.7863,0,0,0,0,0,0,0,0,0,0,0,0,0,-1.8138,-1.8191,-1.8105,-1.8058,-1.8053,-1.8026,-1.8025,-1.8023,-1.7952,-1.795,-1.7949,-1.7948,-1.7867,-1.7865,-1.7862,-1.7875,0,0,-1.7856,-1.7855,0,0,0,0,0,0,0,0,-1.8141,-1.8135,-1.8066,-1.8061,-1.8055,-1.7997,-1.8025,-1.7974,-1.7952,-1.799,-1.7949,-1.7947,-1.791,-1.7904,-1.7892,-1.7872,-1.7868,-1.7856,-1.7855,-1.7854,-1.7853,0,0,0,0,0,0,0,-1.8145,-1.8138,-1.8073,-1.8065,-1.8058,-1.804,-1.8031,-1.8015,-1.7958,-1.7987,-1.7981,-1.7973,-1.7907,-1.7895,-1.789,-1.7867,-1.7856,-1.7854,-1.7853,-1.7852,-1.7853,-1.7854,0,0,0,0,0,0,-1.8156,-1.8142,-1.8076,-1.8071,-1.8096,-1.804,-1.8029,-1.8017,-1.7958,-1.7948,-1.7974,-1.797,-1.7899,-1.7892,-1.7887,-1.7898,-1.7854,-1.7852,-1.785,-1.7852,-1.7853,-1.7855,0,0,0,0,0,0,-1.8159,-1.8151,-1.8079,-1.8105,-1.8094,-1.8039,-1.8026,-1.8016,-1.8003,-1.7949,-1.7938,-1.7972,-1.7898,-1.789,-1.7879,-1.7894,-1.7851,-1.7849,-1.785,-1.7852,-1.7854,-1.7921,0,0,0,0,0,0,-1.8161,-1.8152,-1.8157,-1.8105,-1.8093,-1.8073,-1.8027,-1.8016,-1.8,-1.7994,-1.7944,-1.7934,-1.7896,-1.7883,-1.7877,-1.789,-1.7847,-1.7848,-1.7851,-1.7853,-1.7917,-1.7925,-1.7931,0,0,0,0,0,-1.8165,-1.8178,-1.8158,-1.815,-1.8098,-1.8074,-1.8067,-1.8023,-1.8002,-1.8006,-1.7971,-1.7936,-1.7894,-1.7882,-1.7875,-1.7888,-1.7847,-1.785,-1.7853,-1.7913,-1.7923,-1.7931,0,0,0,0,0,0,-1.8232,-1.8171,-1.8147,-1.8144,-1.8115,-1.8062,-1.8066,-1.8035,-1.801,-1.8005,-1.7952,-1.7941,-1.7936,-1.7911,-1.7899,-1.7898,-1.7866,-1.7867,-1.7914,-1.7923,-1.793,-1.7935,-1.7845,0,0,0,0,0,-1.8247,-1.8233,-1.818,-1.8183,-1.817,-1.8121,-1.8109,-1.8078,-1.8045,-1.8032,-1.7996,-1.7965,-1.7945,-1.7933,-1.7911,-1.7913,-1.7901,-1.7919,-1.7926,-1.7932,-1.7934,-1.7933,-1.794,-1.7864,-1.7864,-1.7864,0,0,-1.8276,-1.8241,-1.8236,-1.8196,-1.8169,-1.8156,-1.8111,-1.8098,-1.8088,-1.803,-1.8017,-1.7991,-1.7953,-1.7949,-1.7945,-1.7928,-1.7953,-1.7936,-1.7942,-1.7939,-1.7937,-1.7944,-1.7951,-1.7866,-1.7866,-1.7866,0,0,-1.8324,-1.8296,-1.8296,-1.8271,-1.8232,-1.8199,-1.82,-1.8151,-1.8131,-1.8119,-1.8075,-1.8062,-1.8028,-1.8003,-1.7986,-1.8026,-1.7992,-1.802,-1.8057,-1.8057,-1.8063,-1.8068,-1.8082,-1.8087,-1.8022,-1.8022,-1.8022,0,-1.8365,-1.8344,-1.8299,-1.829,-1.8273,-1.8222,-1.822,-1.8198,-1.8154,-1.8144,-1.8125,-1.8083,-1.8053,-1.8043,-1.8053,-1.8041,-1.8039,-1.8025,-1.8066,-1.8071,-1.8075,-1.8087,-1.8092,-1.8026,-1.8025,-1.8025,-1.8025,0,-1.8397,-1.8383,-1.8387,-1.8347,-1.8331,-1.8326,-1.828,-1.827,-1.8241,-1.821,-1.8198,-1.8162,-1.8132,-1.8127,-1.8098,-1.8113,-1.8103,-1.8076,-1.8043,-1.8086,-1.8097,-1.8101,-1.8031,-1.803,-1.8029,-1.8028,0,0,-1.8482,-1.8419,-1.8421,-1.8402,-1.8357,-1.8345,-1.8338,-1.8309,-1.8301,-1.8273,-1.8265,-1.8239,-1.8214,-1.8195,-1.8163,-1.8163,-1.8197,-1.8136,-1.8134,-1.8148,-1.821,-1.8229,-1.8236,-1.8175,-1.8176,-1.8177,-1.8213,0,-1.8521,-1.8505,-1.8465,-1.8462,-1.8448,-1.84,-1.8394,-1.8365,-1.8337,-1.8321,-1.829,-1.8272,-1.8241,-1.8229,-1.8227,-1.8193,-1.8208,-1.819,-1.8166,-1.8166,-1.8176,-1.8241,-1.8262,-1.8297,-1.8217,-1.8217,-1.8218,0,-1.8563,-1.854,-1.8535,-1.8491,-1.8484,-1.8479,-1.845,-1.8436,-1.8403,-1.8382,-1.8362,-1.8327,-1.8317,-1.8287,-1.8272,-1.826,-1.8249,-1.8231,-1.8231,-1.8226,-1.8194,-1.8237,-1.8308,-1.8313,-1.8224,-1.8224,-1.8223,0,-1.8625,-1.8592,-1.8585,-1.8571,-1.8519,-1.8517,-1.8496,-1.8461,-1.8447,-1.8422,-1.8412,-1.8386,-1.8372,-1.8352,-1.8311,-1.8294,-1.83,-1.8267,-1.8282,-1.8283,-1.8284,-1.8284,-1.8353,-1.8279,-1.8279,-1.8279,-1.8279,0,-1.8672,-1.8671,-1.8612,-1.8608,-1.8605,-1.856,-1.8559,-1.8532,-1.8503,-1.8492,-1.8449,-1.844,-1.8387,-1.8372,-1.834,-1.8332,-1.8326,-1.8308,-1.8299,-1.8311,-1.8313,-1.8301,-1.8297,-1.8281,-1.828,-1.828,-1.828,0,-1.8739,-1.87,-1.8689,-1.8642,-1.8631,-1.8631,-1.859,-1.8584,-1.8554,-1.8542,-1.8536,-1.8489,-1.8469,-1.8426,-1.8395,-1.8373,-1.8372,-1.8357,-1.8384,-1.8378,-1.8395,-1.8394,-1.8457,-1.8463,-1.8387,-1.8388,-1.8389,0,-1.8771,-1.8769,-1.8723,-1.8713,-1.8693,-1.8678,-1.8664,-1.862,-1.8606,-1.8569,-1.8568,-1.8545,-1.8523,-1.8494,-1.8456,-1.8432,-1.8415,-1.8439,-1.8411,-1.8423,-1.8414,-1.8414,-1.8414,-1.8445,-1.8446,-1.8447,-1.8448,0,-1.8831,-1.8812,-1.8794,-1.8769,-1.8754,-1.8732,-1.8707,-1.8702,-1.8652,-1.8639,-1.8619,-1.8603,-1.8571,-1.8548,-1.8519,-1.8496,-1.8463,-1.8458,-1.8459,-1.8471,-1.8485,-1.8477,-1.84,-1.8456,-1.8455,-1.8454,-1.8454,-1.8454,-1.888,-1.8877,-1.8844,-1.8825,-1.8803,-1.8781,-1.8773,-1.8743,-1.8726,-1.8697,-1.8672,-1.8654,-1.8621,-1.8578,-1.8557,-1.8542,-1.8526,-1.8529,-1.853,-1.8531,-1.8536,-1.849,-1.8537,-1.8537,-1.8536,-1.8536,-1.8536,0,-1.8937,-1.8914,-1.8898,-1.8866,-1.8851,-1.8824,-1.8796,-1.8785,-1.877,-1.8743,-1.8723,-1.87,-1.8679,-1.864,-1.8615,-1.861,-1.8595,-1.8605,-1.8604,-1.8599,-1.8552,-1.8552,-1.8618,-1.8618,-1.8618,-1.8618,-1.8618,-1.8618,-1.8965,-1.8958,-1.8935,-1.8916,-1.8893,-1.8875,-1.8862,-1.8842,-1.882,-1.8796,-1.8779,-1.8754,-1.8722,-1.8695,-1.8674,-1.8663,-1.8655,-1.867,-1.8655,-1.861,-1.8603,-1.8595,-1.8595,-1.8669,-1.8669,-1.8703,-1.8703,-1.8704]},{"header":{"parameterUnit":"m.s-1","parameterCategory":1,"la1":30.2991,"la2":30.254,"lo1":-89.0895,"lo2":-89.0444,"dy":0.0017,"dx":0.0017,"nx":28,"ny":28,"refTime":"2024-06-02T03:00:00:Z","depth":0,"parameterNumber":3,"parameterNumberName":"V-component_of_WINDS"},"data":[0,0,0,0,0,0,0,0,0,0,0,0,0,0,0,0,0,0,0,0,0,0,0,0,0,0,0,0,0,0,0,0,0,0,0,0,0,0,0,0,0,0,0,0,0,0,0,0,0,0,0,0,0,0,0,0,0,0,4.1187,4.1187,0,4.115,4.1149,4.1149,4.1059,4.1057,4.1055,4.1053,4.1018,4.1019,4.1019,0,0,0,0,0,0,0,0,0,0,0,0,0,4.1185,4.1185,4.1188,4.1187,4.1187,4.115,4.1149,4.1149,4.1059,4.1057,4.1055,4.1052,4.1018,4.1019,4.102,0,0,0,0,0,0,0,0,0,0,0,0,0,4.117,4.1185,4.1188,4.1137,4.1132,4.115,4.1149,4.1149,4.106,4.1057,4.1054,4.1051,4.1017,4.1018,4.102,4.1084,0,0,4.1023,4.1024,0,0,0,0,0,0,0,0,4.1171,4.1171,4.1145,4.1141,4.1135,4.1106,4.1135,4.1127,4.106,4.1087,4.1053,4.105,4.105,4.1048,4.1047,4.1082,4.1081,4.1024,4.1024,4.1025,4.1025,0,0,0,0,0,0,0,4.1172,4.1172,4.1173,4.1145,4.1139,4.1118,4.1112,4.1133,4.1085,4.1085,4.1078,4.1075,4.1046,4.1046,4.1046,4.108,4.1023,4.1025,4.1025,4.1026,4.1166,4.1169,0,0,0,0,0,0,4.118,4.1173,4.1174,4.1172,4.1147,4.112,4.1114,4.1118,4.1085,4.1077,4.1077,4.1071,4.1046,4.1045,4.1044,4.1117,4.1025,4.1026,4.1027,4.1164,4.1167,4.117,0,0,0,0,0,0,4.1181,4.1181,4.1175,4.1171,4.1168,4.1123,4.1129,4.1119,4.1119,4.1079,4.107,4.1086,4.1043,4.1043,4.1075,4.1115,4.1026,4.1028,4.116,4.1165,4.1169,4.1264,0,0,0,0,0,0,4.1181,4.1182,4.1205,4.1172,4.1169,4.1206,4.1131,4.112,4.1121,4.1112,4.1084,4.1077,4.1041,4.1073,4.1076,4.1115,4.1029,4.1156,4.1162,4.1167,4.1257,4.1271,4.1283,0,0,0,0,0,4.1181,4.1234,4.1207,4.1207,4.1197,4.1208,4.1207,4.1163,4.1125,4.1148,4.1122,4.1078,4.111,4.1077,4.1079,4.112,4.1153,4.116,4.1167,4.1251,4.1268,4.1283,0,0,0,0,0,0,4.1274,4.1229,4.1198,4.1241,4.1229,4.1193,4.1221,4.1183,4.1182,4.1174,4.1121,4.1115,4.1155,4.114,4.1105,4.118,4.1125,4.1132,4.1188,4.1204,4.1217,4.122,4.103,0,0,0,0,0,4.13,4.1312,4.1272,4.1314,4.1309,4.1267,4.127,4.1238,4.1223,4.1218,4.1194,4.1183,4.119,4.1197,4.1201,4.1255,4.1248,4.1283,4.1297,4.1308,4.1315,4.1342,4.1358,4.1193,4.1193,4.1192,0,0,4.1353,4.1329,4.134,4.1332,4.1319,4.1334,4.1263,4.1281,4.1292,4.1221,4.1249,4.1232,4.1216,4.1259,4.1277,4.1248,4.1359,4.1316,4.1325,4.1326,4.1351,4.1366,4.138,4.1197,4.1196,4.1196,0,0,4.1457,4.144,4.1473,4.1461,4.1442,4.1413,4.1421,4.1391,4.1376,4.1404,4.1351,4.1364,4.1377,4.1368,4.1365,4.1466,4.1426,4.1469,4.1538,4.1565,4.1578,4.159,4.1626,4.1639,4.1477,4.1477,4.1477,0,4.1525,4.1544,4.1496,4.1517,4.1516,4.1451,4.1485,4.1476,4.146,4.1461,4.1429,4.1445,4.1429,4.1469,4.1494,4.1494,4.1502,4.1472,4.158,4.1591,4.1601,4.1635,4.1649,4.1482,4.1482,4.1481,4.1481,0,4.1629,4.1644,4.1673,4.1658,4.1659,4.1687,4.1644,4.1652,4.162,4.1595,4.1624,4.1604,4.1603,4.161,4.1579,4.1646,4.1629,4.159,4.1533,4.1623,4.1654,4.1666,4.149,4.1488,4.1487,4.1485,0,0,4.179,4.1748,4.176,4.1752,4.1726,4.1737,4.1762,4.176,4.1768,4.176,4.178,4.1793,4.1757,4.1753,4.1721,4.1745,4.1827,4.1702,4.1701,4.1726,4.19,4.193,4.1945,4.18,4.1802,4.1804,4.1901,0,4.1888,4.1928,4.1885,4.1934,4.1947,4.1886,4.1909,4.1896,4.1873,4.1882,4.1857,4.1867,4.1818,4.1816,4.1837,4.1812,4.1861,4.1805,4.1819,4.182,4.1825,4.1962,4.1993,4.2086,4.1913,4.1915,4.1916,0,4.2007,4.2002,4.2053,4.2023,4.2027,4.2048,4.2043,4.2052,4.2036,4.2018,4.2015,4.1976,4.2,4.1945,4.1977,4.194,4.1943,4.1933,4.1935,4.1935,4.1874,4.1965,4.2114,4.2128,4.1935,4.1934,4.1932,0,4.2119,4.2126,4.2157,4.2152,4.2119,4.2135,4.2123,4.2104,4.2106,4.2102,4.2103,4.2103,4.2103,4.2104,4.2066,4.203,4.2104,4.2046,4.209,4.2091,4.2108,4.2108,4.226,4.2111,4.2111,4.2111,4.2111,0,4.2233,4.2266,4.2207,4.2226,4.2262,4.2213,4.225,4.2231,4.2215,4.223,4.2178,4.2194,4.2143,4.2153,4.2124,4.2155,4.2156,4.2142,4.2134,4.2147,4.2149,4.2148,4.2141,4.2114,4.2114,4.2113,4.2112,0,4.2364,4.2326,4.2356,4.2322,4.2314,4.2342,4.2313,4.233,4.2304,4.2324,4.2326,4.2286,4.2295,4.2257,4.2261,4.2241,4.2288,4.2269,4.2293,4.2287,4.2334,4.233,4.2492,4.2511,4.235,4.2351,4.2353,0,4.2439,4.2463,4.2431,4.2437,4.2426,4.2437,4.2438,4.2392,4.2395,4.238,4.2399,4.2404,4.2405,4.2424,4.2395,4.2398,4.2379,4.2435,4.2379,4.2391,4.238,4.2379,4.2381,4.2447,4.2449,4.245,4.2452,0,4.2575,4.2555,4.2559,4.2556,4.2559,4.2555,4.2547,4.2556,4.2505,4.2513,4.2521,4.2522,4.2525,4.2531,4.2528,4.2516,4.2476,4.247,4.248,4.2494,4.2506,4.25,4.2325,4.2466,4.2465,4.2464,4.2463,4.2462,4.2681,4.2699,4.268,4.2686,4.2675,4.2669,4.2683,4.2659,4.2665,4.2663,4.2635,4.2649,4.2634,4.2625,4.2617,4.2628,4.2601,4.2617,4.2621,4.2625,4.2633,4.2505,4.2627,4.2627,4.2626,4.2626,4.2625,0,4.2815,4.2799,4.2805,4.2795,4.28,4.2761,4.2751,4.2758,4.2771,4.2759,4.2762,4.2772,4.2777,4.275,4.2752,4.2766,4.2748,4.2768,4.2767,4.2765,4.2657,4.2647,4.2783,4.2783,4.2783,4.2783,4.2783,4.2783,4.2885,4.2914,4.2892,4.2916,4.29,4.2912,4.291,4.2905,4.2895,4.2908,4.2912,4.2894,4.2876,4.2876,4.288,4.2872,4.2875,4.2902,4.2888,4.2787,4.2772,4.2758,4.2748,4.2903,4.2903,4.2995,4.2996,4.2996]}]]